This is the latest recevied weather packets stored in our database for station/object W5ITZ. If no packets are shown the sender has not sent any weather packets the latest 10 day(s).
| Time | Temp. | Humidity | Pressure | Rain* | Wind** | Luminosity | Snow |
|---|---|---|---|---|---|---|---|
| 1777818285 | 21.67° C | 67% | 1022.9 hPa | 0 mm | - | 484 W/m² | - |
| 1777817981 | 21.11° C | 69% | 1023 hPa | 0 mm | - | 464 W/m² | - |
| 1777817679 | 21.11° C | 68% | 1022.8 hPa | 0 mm | - | 444 W/m² | - |
| 1777817375 | 21.11° C | 68% | 1022.9 hPa | 0 mm | - | 422 W/m² | - |
| 1777817072 | 21.11° C | 71% | 1022.5 hPa | 0 mm | - | 402 W/m² | - |
| 1777816768 | 20.56° C | 74% | 1022.6 hPa | 0 mm | - | 382 W/m² | - |
| 1777816466 | 20° C | 75% | 1022.7 hPa | 0 mm | - | 361 W/m² | - |
| 1777816164 | 20° C | 75% | 1022.7 hPa | 0 mm | - | 336 W/m² | - |
| 1777815861 | 19.44° C | 75% | 1022.9 hPa | 0 mm | - | 314 W/m² | - |
| 1777815558 | 19.44° C | 78% | 1022.8 hPa | 0 mm | - | 293 W/m² | - |
| 1777815257 | 18.89° C | 80% | 1022.6 hPa | 0 mm | - | 237 W/m² | - |
| 1777814951 | 18.33° C | 82% | 1022.8 hPa | 0 mm | - | 182 W/m² | - |
| 1777814649 | 17.78° C | 84% | 1022.8 hPa | 0 mm | - | 144 W/m² | - |
| 1777814345 | 17.78° C | 86% | 1022.6 hPa | 0 mm | - | 122 W/m² | - |
| 1777814042 | 17.22° C | 89% | 1022.7 hPa | 0 mm | - | 108 W/m² | - |
| 1777813739 | 16.67° C | 91% | 1022.6 hPa | 0 mm | - | 100 W/m² | - |
| 1777813436 | 16.67° C | 92% | 1022.5 hPa | 0 mm | - | 94 W/m² | - |
| 1777813134 | 16.11° C | 92% | 1022.4 hPa | 0 mm | - | 72 W/m² | - |
| 1777812832 | 15.56° C | 94% | 1022.2 hPa | 0 mm | - | 48 W/m² | - |
| 1777812528 | 15° C | 94% | 1022.4 hPa | 0 mm | - | 84 W/m² | - |
| 1777812226 | 14.44° C | 94% | 1022.2 hPa | 0 mm | - | 54 W/m² | - |
| 1777811924 | 13.89° C | 94% | 1022.3 hPa | 0 mm | - | 73 W/m² | - |
| 1777811623 | 13.89° C | 94% | 1022.2 hPa | 0 mm | - | 66 W/m² | - |
| 1777811323 | 13.33° C | 95% | 1022.1 hPa | 0 mm | - | 56 W/m² | - |
| 1777811020 | 13.33° C | 95% | 1021.9 hPa | 0 mm | - | 51 W/m² | - |
* Rain latest hour (hover to see other rain measurements)
** Current wind speed in m/s (hover to see current wind gust speed)